AAL2137 SGES-SUMU

Flight info

Callsign AAL2137
Flight time 1h 28m
Altitude 34000
Route MOLMA ALDOS UL324 ELAMO UBLAM VUDUP UM402 ANRUP REGOV
Aircraft B788/M-V/N

Departure

Time 2026-05-06 02:32
Airport Guaraní International Airport (SGES)

Arrival

Time 2026-05-06 04:00
Airport Carrasco General Cesáreo L. Berisso International Airport (SUMU)
Time Latitude Longitude Altitude Speed Heading
2026-05-06 02:07 -25.45748 -54.84123 867 ft 0 kts 131°
2026-05-06 02:22 -25.45741 -54.84132 867 ft 2 kts 131°
2026-05-06 02:23 -25.45729 -54.84147 867 ft 3 kts 131°
2026-05-06 02:23 -25.45716 -54.84164 867 ft 2 kts 131°
2026-05-06 02:23 -25.45711 -54.84171 867 ft 2 kts 131°
2026-05-06 02:23 -25.45699 -54.84185 867 ft 3 kts 135°
2026-05-06 02:24 -25.45684 -54.84200 867 ft 3 kts 142°
2026-05-06 02:24 -25.45667 -54.84213 867 ft 3 kts 149°
2026-05-06 02:24 -25.45658 -54.84219 867 ft 0 kts 152°
2026-05-06 02:25 -25.45670 -54.84218 867 ft 4 kts 188°
2026-05-06 02:25 -25.45702 -54.84246 867 ft 9 kts 223°
2026-05-06 02:25 -25.45745 -54.84291 867 ft 5 kts 224°
2026-05-06 02:26 -25.45754 -54.84325 867 ft 7 kts 271°
2026-05-06 02:26 -25.45719 -54.84393 867 ft 14 kts 310°
2026-05-06 02:26 -25.45699 -54.84502 867 ft 16 kts 235°
2026-05-06 02:26 -25.45862 -54.84660 867 ft 52 kts 221°
2026-05-06 02:27 -25.46218 -54.84996 867 ft 60 kts 220°
2026-05-06 02:27 -25.46425 -54.85192 867 ft 28 kts 220°
2026-05-06 02:27 -25.46551 -54.85311 867 ft 20 kts 220°
2026-05-06 02:27 -25.46632 -54.85402 867 ft 14 kts 242°
2026-05-06 02:28 -25.46673 -54.85444 867 ft 4 kts 165°
2026-05-06 02:28 -25.46686 -54.85425 867 ft 5 kts 101°
2026-05-06 02:28 -25.46667 -54.85399 867 ft 7 kts 18°
2026-05-06 02:28 -25.46609 -54.85368 867 ft 9 kts 41°
2026-05-06 02:29 -25.46606 -54.85365 867 ft 0 kts 41°
2026-05-06 02:32 -25.46573 -54.85333 867 ft 32 kts 41°
2026-05-06 02:32 -25.46168 -54.84945 867 ft 122 kts 40°
2026-05-06 02:32 -25.45283 -54.84107 986 ft 206 kts 40°
2026-05-06 02:32 -25.44037 -54.82922 1688 ft 269 kts 40°
2026-05-06 02:33 -25.42455 -54.81419 2891 ft 324 kts 40°
2026-05-06 02:33 -25.41274 -54.80295 3780 ft 345 kts 40°
2026-05-06 02:33 -25.37777 -54.75613 6090 ft 384 kts 65°
2026-05-06 02:34 -25.37296 -54.72562 6819 ft 416 kts 90°
2026-05-06 02:34 -25.38226 -54.69720 9325 ft 392 kts 123°
2026-05-06 02:34 -25.40231 -54.67661 10768 ft 413 kts 148°
2026-05-06 02:34 -25.43056 -54.66553 11827 ft 436 kts 171°
2026-05-06 02:35 -25.46164 -54.66513 12986 ft 452 kts 188°
2026-05-06 02:35 -25.49215 -54.67424 14028 ft 466 kts 203°
2026-05-06 02:35 -25.52125 -54.69089 15232 ft 475 kts 211°
2026-05-06 02:35 -25.55034 -54.70542 16220 ft 431 kts 204°
2026-05-06 02:36 -25.57783 -54.71516 17194 ft 407 kts 199°
2026-05-06 02:36 -25.60542 -54.72228 18191 ft 407 kts 195°
2026-05-06 02:36 -25.63336 -54.72729 19198 ft 403 kts 191°
2026-05-06 02:36 -25.66115 -54.73048 20196 ft 406 kts 188°
2026-05-06 02:37 -25.68934 -54.73227 21198 ft 409 kts 186°
2026-05-06 02:37 -25.71795 -54.73288 22188 ft 414 kts 184°
2026-05-06 02:37 -25.74708 -54.73257 23016 ft 422 kts 182°
2026-05-06 02:37 -25.77672 -54.73148 23789 ft 426 kts 181°
2026-05-06 02:38 -25.80637 -54.72979 24544 ft 430 kts 180°
2026-05-06 02:38 -25.83659 -54.72762 25302 ft 435 kts 179°
2026-05-06 02:38 -25.86703 -54.72511 26056 ft 440 kts 179°
2026-05-06 02:38 -25.89753 -54.72237 26804 ft 445 kts 178°
2026-05-06 02:39 -25.92850 -54.71944 27556 ft 449 kts 178°
2026-05-06 02:39 -25.96010 -54.71634 28315 ft 454 kts 178°
2026-05-06 02:39 -25.99180 -54.71316 29069 ft 459 kts 178°
2026-05-06 02:39 -26.02360 -54.70994 29817 ft 464 kts 178°
2026-05-06 02:40 -26.05624 -54.70662 30576 ft 469 kts 178°
2026-05-06 02:40 -26.08862 -54.70332 31322 ft 473 kts 178°
2026-05-06 02:40 -26.12182 -54.69993 32080 ft 478 kts 178°
2026-05-06 02:40 -26.15495 -54.69658 32473 ft 491 kts 178°
2026-05-06 02:41 -26.18934 -54.69313 32704 ft 503 kts 178°
2026-05-06 02:41 -26.22425 -54.69232 32946 ft 497 kts 185°
2026-05-06 02:41 -26.25839 -54.69648 33199 ft 488 kts 191°
2026-05-06 02:41 -26.29159 -54.70415 33453 ft 489 kts 196°
2026-05-06 02:42 -26.32460 -54.71440 33709 ft 490 kts 199°
2026-05-06 02:42 -26.35679 -54.72614 33890 ft 491 kts 201°
2026-05-06 02:42 -26.38924 -54.73913 33983 ft 492 kts 203°
2026-05-06 02:43 -26.45341 -54.76651 34002 ft 493 kts 204°
2026-05-06 02:43 -26.51728 -54.79402 34000 ft 494 kts 203°
2026-05-06 02:44 -26.58172 -54.82089 34000 ft 494 kts 203°
2026-05-06 02:44 -26.64655 -54.84745 34000 ft 494 kts 202°
2026-05-06 02:45 -26.71092 -54.87368 34000 ft 494 kts 202°
2026-05-06 02:45 -26.77570 -54.90010 34000 ft 494 kts 202°
2026-05-06 02:46 -26.84044 -54.92657 34000 ft 494 kts 202°
2026-05-06 02:46 -26.90460 -54.95289 34000 ft 494 kts 202°
2026-05-06 02:47 -26.96939 -54.97954 34000 ft 494 kts 203°
2026-05-06 02:47 -27.03388 -55.00614 34000 ft 494 kts 203°
2026-05-06 02:48 -27.09882 -55.03298 34000 ft 494 kts 203°
2026-05-06 02:48 -27.16306 -55.05958 34000 ft 494 kts 203°
2026-05-06 02:49 -27.21704 -55.08197 34000 ft 494 kts 203°
2026-05-06 02:49 -27.28128 -55.10865 34000 ft 494 kts 203°
2026-05-06 02:50 -27.34607 -55.13561 34000 ft 494 kts 203°
2026-05-06 02:50 -27.41070 -55.16253 34000 ft 494 kts 203°
2026-05-06 02:51 -27.47512 -55.18940 34000 ft 494 kts 203°
2026-05-06 02:51 -27.53958 -55.21632 34000 ft 494 kts 203°
2026-05-06 02:52 -27.60401 -55.24327 34000 ft 494 kts 203°
2026-05-06 02:52 -27.66882 -55.27041 34000 ft 494 kts 203°
2026-05-06 02:53 -27.73319 -55.29740 34000 ft 494 kts 203°
2026-05-06 02:53 -27.79776 -55.32451 34000 ft 494 kts 203°
2026-05-06 02:54 -27.86210 -55.35155 34000 ft 494 kts 203°
2026-05-06 02:54 -27.92641 -55.37862 34000 ft 489 kts 203°
2026-05-06 02:55 -27.99004 -55.40543 34000 ft 487 kts 203°
2026-05-06 02:55 -28.05334 -55.43217 34000 ft 486 kts 203°
2026-05-06 02:56 -28.11818 -55.45463 34001 ft 489 kts 197°
2026-05-06 02:56 -28.18521 -55.47014 34001 ft 490 kts 193°
2026-05-06 02:57 -28.25227 -55.48251 34000 ft 490 kts 191°
2026-05-06 02:57 -28.32004 -55.49384 34000 ft 490 kts 191°
2026-05-06 02:58 -28.38719 -55.50475 34000 ft 490 kts 191°
2026-05-06 02:58 -28.45491 -55.51578 34000 ft 490 kts 191°
2026-05-06 02:59 -28.52228 -55.52688 34000 ft 490 kts 191°
2026-05-06 02:59 -28.59003 -55.53821 34000 ft 490 kts 191°
2026-05-06 03:00 -28.65719 -55.54958 34000 ft 490 kts 191°
2026-05-06 03:00 -28.72465 -55.56112 34000 ft 490 kts 191°
2026-05-06 03:01 -28.79241 -55.57280 34000 ft 490 kts 191°
2026-05-06 03:01 -28.85958 -55.58444 34000 ft 490 kts 191°
2026-05-06 03:02 -28.92678 -55.59614 34000 ft 490 kts 191°
2026-05-06 03:02 -28.99457 -55.60799 34000 ft 489 kts 191°
2026-05-06 03:03 -29.06171 -55.61976 34000 ft 489 kts 191°
2026-05-06 03:03 -29.12919 -55.63161 34000 ft 489 kts 192°
2026-05-06 03:04 -29.19660 -55.64348 34000 ft 489 kts 192°
2026-05-06 03:04 -29.26371 -55.65532 34000 ft 489 kts 192°
2026-05-06 03:05 -29.33108 -55.66722 34000 ft 489 kts 192°
2026-05-06 03:05 -29.39832 -55.67912 34000 ft 489 kts 192°
2026-05-06 03:06 -29.46579 -55.69107 34000 ft 489 kts 192°
2026-05-06 03:06 -29.53319 -55.70303 34000 ft 489 kts 192°
2026-05-06 03:07 -29.60033 -55.71496 34000 ft 489 kts 192°
2026-05-06 03:07 -29.66789 -55.72699 34000 ft 489 kts 192°
2026-05-06 03:08 -29.73514 -55.73897 34000 ft 489 kts 192°
2026-05-06 03:08 -29.80221 -55.75094 34000 ft 489 kts 192°
2026-05-06 03:09 -29.86930 -55.76293 34000 ft 489 kts 192°
2026-05-06 03:09 -29.93695 -55.77503 34000 ft 489 kts 192°
2026-05-06 03:10 -30.00428 -55.78710 34000 ft 489 kts 192°
2026-05-06 03:10 -30.07149 -55.79916 34000 ft 489 kts 192°
2026-05-06 03:11 -30.13882 -55.81126 34000 ft 489 kts 192°
2026-05-06 03:11 -30.20619 -55.82338 34000 ft 489 kts 192°
2026-05-06 03:12 -30.27352 -55.83551 34000 ft 489 kts 192°
2026-05-06 03:12 -30.34053 -55.84760 34000 ft 489 kts 192°
2026-05-06 03:13 -30.40814 -55.85982 34000 ft 489 kts 192°
2026-05-06 03:13 -30.47514 -55.87194 34000 ft 489 kts 192°
2026-05-06 03:14 -30.54275 -55.88419 34000 ft 489 kts 192°
2026-05-06 03:14 -30.60968 -55.89633 34000 ft 489 kts 192°
2026-05-06 03:15 -30.67727 -55.90861 34000 ft 489 kts 192°
2026-05-06 03:15 -30.74463 -55.92087 34000 ft 489 kts 192°
2026-05-06 03:16 -30.81167 -55.93309 34000 ft 489 kts 192°
2026-05-06 03:16 -30.87890 -55.94535 34000 ft 489 kts 192°
2026-05-06 03:17 -30.94616 -55.95764 34000 ft 489 kts 192°
2026-05-06 03:17 -31.01378 -55.97002 34000 ft 489 kts 192°
2026-05-06 03:18 -31.08088 -55.98232 34000 ft 489 kts 192°
2026-05-06 03:18 -31.14798 -55.99463 34000 ft 489 kts 192°
2026-05-06 03:19 -31.21533 -56.00701 34000 ft 489 kts 192°
2026-05-06 03:19 -31.28285 -56.01943 34000 ft 489 kts 192°
2026-05-06 03:20 -31.38340 -56.03797 34000 ft 489 kts 192°
2026-05-06 03:20 -31.43982 -56.04839 34000 ft 489 kts 192°
2026-05-06 03:21 -31.50681 -56.06078 34000 ft 489 kts 192°
2026-05-06 03:21 -31.57396 -56.07322 34000 ft 489 kts 192°
2026-05-06 03:22 -31.64125 -56.08570 34000 ft 489 kts 192°
2026-05-06 03:22 -31.70853 -56.09820 34000 ft 489 kts 192°
2026-05-06 03:23 -31.77608 -56.11076 34000 ft 489 kts 192°
2026-05-06 03:23 -31.84316 -56.12326 34000 ft 489 kts 192°
2026-05-06 03:24 -31.91053 -56.13583 34000 ft 489 kts 192°
2026-05-06 03:24 -31.97756 -56.14836 33743 ft 491 kts 192°
2026-05-06 03:25 -32.01107 -56.15462 33333 ft 483 kts 192°
2026-05-06 03:25 -32.04402 -56.16076 33049 ft 477 kts 192°
2026-05-06 03:25 -32.07697 -56.16690 32790 ft 475 kts 192°
2026-05-06 03:25 -32.10957 -56.17299 32537 ft 472 kts 192°
2026-05-06 03:26 -32.14193 -56.17905 32286 ft 469 kts 192°
2026-05-06 03:26 -32.17403 -56.18507 32036 ft 466 kts 192°
2026-05-06 03:26 -32.20612 -56.19109 31785 ft 464 kts 192°
2026-05-06 03:26 -32.23787 -56.19706 31535 ft 462 kts 192°
2026-05-06 03:27 -32.26928 -56.20297 31286 ft 460 kts 192°
2026-05-06 03:27 -32.30093 -56.20893 31035 ft 458 kts 192°
2026-05-06 03:27 -32.33230 -56.21484 30785 ft 456 kts 192°
2026-05-06 03:27 -32.36369 -56.22077 30533 ft 454 kts 192°
2026-05-06 03:28 -32.39482 -56.22665 30283 ft 452 kts 192°
2026-05-06 03:28 -32.42597 -56.23253 30031 ft 450 kts 192°
2026-05-06 03:28 -32.45668 -56.23834 29782 ft 449 kts 192°
2026-05-06 03:28 -32.48752 -56.24418 29531 ft 447 kts 192°
2026-05-06 03:29 -32.51817 -56.24998 29280 ft 445 kts 192°
2026-05-06 03:29 -32.54886 -56.25580 29028 ft 443 kts 192°
2026-05-06 03:29 -32.57912 -56.26154 28779 ft 441 kts 192°
2026-05-06 03:29 -32.60945 -56.26729 28528 ft 440 kts 192°
2026-05-06 03:30 -32.63965 -56.27303 28277 ft 438 kts 192°
2026-05-06 03:30 -32.66978 -56.27875 28026 ft 436 kts 192°
2026-05-06 03:30 -32.69947 -56.28440 27777 ft 434 kts 192°
2026-05-06 03:30 -32.72929 -56.29007 27526 ft 433 kts 192°
2026-05-06 03:31 -32.75917 -56.29576 27274 ft 431 kts 192°
2026-05-06 03:31 -32.78867 -56.30138 27024 ft 429 kts 192°
2026-05-06 03:31 -32.81827 -56.30703 26772 ft 428 kts 192°
2026-05-06 03:31 -32.84751 -56.31261 26523 ft 426 kts 192°
2026-05-06 03:32 -32.87659 -56.31816 26273 ft 424 kts 192°
2026-05-06 03:32 -32.90599 -56.32379 26020 ft 423 kts 192°
2026-05-06 03:32 -32.93481 -56.32931 25771 ft 421 kts 192°
2026-05-06 03:32 -32.96389 -56.33306 25517 ft 423 kts 187°
2026-05-06 03:33 -32.99342 -56.33263 25269 ft 424 kts 181°
2026-05-06 03:33 -33.02298 -56.32940 25021 ft 424 kts 177°
2026-05-06 03:33 -33.05186 -56.32447 24775 ft 423 kts 174°
2026-05-06 03:33 -33.08122 -56.31831 24523 ft 422 kts 173°
2026-05-06 03:34 -33.11013 -56.31154 24272 ft 421 kts 172°
2026-05-06 03:34 -33.13837 -56.30453 24025 ft 419 kts 171°
2026-05-06 03:34 -33.16689 -56.29725 23774 ft 418 kts 171°
2026-05-06 03:34 -33.19515 -56.28994 23524 ft 416 kts 171°
2026-05-06 03:35 -33.22362 -56.28256 23271 ft 414 kts 171°
2026-05-06 03:35 -33.25153 -56.27534 23022 ft 413 kts 171°
2026-05-06 03:35 -33.27981 -56.26807 22770 ft 411 kts 171°
2026-05-06 03:35 -33.30760 -56.26098 22520 ft 409 kts 171°
2026-05-06 03:36 -33.33556 -56.25390 22268 ft 408 kts 171°
2026-05-06 03:36 -33.36326 -56.24693 22018 ft 406 kts 172°
2026-05-06 03:36 -33.39094 -56.24001 21767 ft 405 kts 172°
2026-05-06 03:36 -33.41850 -56.23315 21516 ft 403 kts 172°
2026-05-06 03:37 -33.44588 -56.22637 21266 ft 401 kts 172°
2026-05-06 03:37 -33.47291 -56.21970 21018 ft 400 kts 172°
2026-05-06 03:37 -33.50025 -56.21297 20766 ft 398 kts 172°
2026-05-06 03:37 -33.52746 -56.20628 20514 ft 397 kts 172°
2026-05-06 03:38 -33.55454 -56.19964 20263 ft 395 kts 172°
2026-05-06 03:38 -33.58145 -56.19304 20013 ft 394 kts 172°
2026-05-06 03:38 -33.60822 -56.18648 19762 ft 392 kts 172°
2026-05-06 03:38 -33.63489 -56.17995 19512 ft 391 kts 172°
2026-05-06 03:39 -33.66122 -56.17350 19264 ft 389 kts 172°
2026-05-06 03:39 -33.68776 -56.16700 19013 ft 388 kts 172°
2026-05-06 03:39 -33.71437 -56.16049 18761 ft 386 kts 172°
2026-05-06 03:39 -33.74046 -56.15409 18512 ft 385 kts 172°
2026-05-06 03:40 -33.76659 -56.14769 18262 ft 383 kts 172°
2026-05-06 03:40 -33.79287 -56.14124 18010 ft 382 kts 172°
2026-05-06 03:40 -33.81883 -56.13487 17760 ft 381 kts 172°
2026-05-06 03:40 -33.84490 -56.12847 17508 ft 379 kts 172°
2026-05-06 03:41 -33.87058 -56.12217 17259 ft 378 kts 172°
2026-05-06 03:41 -33.89620 -56.11587 17009 ft 376 kts 172°
2026-05-06 03:41 -33.92187 -56.10955 16758 ft 375 kts 172°
2026-05-06 03:41 -33.94734 -56.10328 16508 ft 374 kts 172°
2026-05-06 03:42 -33.97284 -56.09700 16257 ft 372 kts 172°
2026-05-06 03:42 -33.99829 -56.09073 16005 ft 371 kts 172°
2026-05-06 03:42 -34.02360 -56.08449 15754 ft 369 kts 172°
2026-05-06 03:42 -34.04857 -56.07833 15505 ft 368 kts 172°
2026-05-06 03:43 -34.07343 -56.07219 15256 ft 367 kts 172°
2026-05-06 03:43 -34.09841 -56.06602 15005 ft 365 kts 172°
2026-05-06 03:43 -34.12345 -56.05983 14753 ft 364 kts 172°
2026-05-06 03:43 -34.14827 -56.05369 14502 ft 362 kts 172°
2026-05-06 03:44 -34.17267 -56.04765 14254 ft 361 kts 172°
2026-05-06 03:44 -34.19729 -56.04155 14003 ft 360 kts 172°
2026-05-06 03:44 -34.22178 -56.03548 13749 ft 359 kts 172°
2026-05-06 03:44 -34.24647 -56.02936 13388 ft 358 kts 172°
2026-05-06 03:45 -34.27090 -56.02330 13011 ft 356 kts 172°
2026-05-06 03:45 -34.29517 -56.01744 12633 ft 353 kts 173°
2026-05-06 03:45 -34.31927 -56.01367 12261 ft 350 kts 177°
2026-05-06 03:45 -34.34357 -56.01171 11885 ft 347 kts 181°
2026-05-06 03:46 -34.36757 -56.01102 11512 ft 344 kts 183°
2026-05-06 03:46 -34.39138 -56.01118 11137 ft 342 kts 184°
2026-05-06 03:46 -34.41507 -56.01187 10762 ft 340 kts 185°
2026-05-06 03:46 -34.43862 -56.01289 10387 ft 337 kts 186°
2026-05-06 03:47 -34.46197 -56.01411 10012 ft 335 kts 186°
2026-05-06 03:47 -34.48529 -56.01543 9635 ft 333 kts 186°
2026-05-06 03:47 -34.50855 -56.01679 9257 ft 332 kts 186°
2026-05-06 03:47 -34.53136 -56.01814 8884 ft 330 kts 186°
2026-05-06 03:48 -34.55449 -56.01950 8504 ft 328 kts 186°
2026-05-06 03:48 -34.57717 -56.02082 8129 ft 326 kts 186°
2026-05-06 03:48 -34.59970 -56.02210 7755 ft 324 kts 186°
2026-05-06 03:48 -34.62213 -56.02338 7411 ft 324 kts 186°
2026-05-06 03:49 -34.64476 -56.02463 6995 ft 319 kts 186°
2026-05-06 03:49 -34.66642 -56.02578 6617 ft 304 kts 186°
2026-05-06 03:49 -34.68694 -56.02685 6243 ft 293 kts 186°
2026-05-06 03:49 -34.70677 -56.02950 5832 ft 281 kts 195°
2026-05-06 03:50 -34.72401 -56.03968 5442 ft 267 kts 216°
2026-05-06 03:50 -34.73603 -56.05587 5067 ft 257 kts 237°
2026-05-06 03:50 -34.74170 -56.07572 4926 ft 245 kts 258°
2026-05-06 03:50 -34.74344 -56.09630 4825 ft 245 kts 267°
2026-05-06 03:51 -34.74430 -56.11711 4702 ft 244 kts 268°
2026-05-06 03:51 -34.74610 -56.13757 4573 ft 242 kts 264°
2026-05-06 03:51 -34.74944 -56.15744 4447 ft 242 kts 258°
2026-05-06 03:51 -34.75442 -56.17711 4322 ft 242 kts 253°
2026-05-06 03:52 -34.76073 -56.19628 4197 ft 243 kts 248°
2026-05-06 03:52 -34.76536 -56.20849 4116 ft 243 kts 246°
2026-05-06 03:52 -34.77534 -56.23214 4016 ft 241 kts 243°
2026-05-06 03:53 -34.77589 -56.23339 4014 ft 240 kts 243°
2026-05-06 03:53 -34.78701 -56.25685 3835 ft 247 kts 238°
2026-05-06 03:53 -34.79494 -56.26717 3441 ft 256 kts 223°
2026-05-06 03:54 -34.81033 -56.27622 3351 ft 239 kts 199°
2026-05-06 03:54 -34.82637 -56.27854 3277 ft 224 kts 186°
2026-05-06 03:54 -34.84174 -56.27999 3133 ft 216 kts 182°
2026-05-06 03:54 -34.85635 -56.27907 3012 ft 209 kts 175°
2026-05-06 03:55 -34.87045 -56.27528 2880 ft 203 kts 165°
2026-05-06 03:55 -34.88320 -56.26884 2752 ft 198 kts 155°
2026-05-06 03:55 -34.89471 -56.25994 2624 ft 194 kts 146°
2026-05-06 03:55 -34.90476 -56.24893 2496 ft 192 kts 136°
2026-05-06 03:56 -34.91304 -56.23636 2414 ft 187 kts 127°
2026-05-06 03:56 -34.91941 -56.22273 2398 ft 184 kts 118°
2026-05-06 03:56 -34.92397 -56.20834 2401 ft 184 kts 109°
2026-05-06 03:56 -34.92688 -56.19309 2402 ft 186 kts 101°
2026-05-06 03:57 -34.92802 -56.17726 2402 ft 187 kts 94°
2026-05-06 03:57 -34.92734 -56.16156 2399 ft 185 kts 85°
2026-05-06 03:57 -34.92378 -56.14649 2235 ft 189 kts 69°
2026-05-06 03:57 -34.91541 -56.13335 1903 ft 197 kts 48°
2026-05-06 03:58 -34.90489 -56.12357 1734 ft 186 kts 38°
2026-05-06 03:58 -34.89508 -56.11375 1683 ft 180 kts 40°
2026-05-06 03:58 -34.88608 -56.10336 1484 ft 177 kts 44°
2026-05-06 03:58 -34.87784 -56.09311 1265 ft 161 kts 46°
2026-05-06 03:59 -34.87048 -56.08295 988 ft 159 kts 49°
2026-05-06 03:59 -34.86377 -56.07239 830 ft 157 kts 52°
2026-05-06 03:59 -34.85739 -56.06209 565 ft 150 kts 53°
2026-05-06 03:59 -34.85108 -56.05164 393 ft 151 kts 53°
2026-05-06 04:00 -34.84500 -56.04164 205 ft 144 kts 53°
2026-05-06 04:00 -34.83945 -56.03261 123 ft 115 kts 53°
2026-05-06 04:00 -34.83598 -56.02680 123 ft 59 kts 53°
2026-05-06 04:00 -34.83437 -56.02419 123 ft 21 kts 53°
2026-05-06 04:01 -34.83393 -56.02347 123 ft 9 kts 53°
2026-05-06 04:01 -34.83342 -56.02264 123 ft 16 kts 53°
2026-05-06 04:01 -34.83261 -56.02132 123 ft 22 kts 54°
2026-05-06 04:01 -34.83194 -56.02001 123 ft 13 kts 82°
2026-05-06 04:02 -34.83218 -56.01948 123 ft 4 kts 139°
2026-05-06 04:02 -34.83231 -56.01935 123 ft 4 kts 143°
2026-05-06 04:02 -34.83260 -56.01910 123 ft 0 kts 144°
2026-05-06 04:05 -34.83271 -56.01901 123 ft 7 kts 144°
2026-05-06 04:05 -34.83331 -56.01847 123 ft 12 kts 143°
2026-05-06 04:05 -34.83393 -56.01792 123 ft 10 kts 143°
2026-05-06 04:05 -34.83443 -56.01747 123 ft 8 kts 144°
2026-05-06 04:06 -34.83479 -56.01744 123 ft 4 kts 205°
2026-05-06 04:06 -34.83501 -56.01766 123 ft 5 kts 229°
2026-05-06 04:06 -34.83520 -56.01783 123 ft 3 kts 193°
2026-05-06 04:06 -34.83537 -56.01776 123 ft 1 kts 139°
2026-05-06 04:07 -34.83562 -56.01748 123 ft 5 kts 142°
2026-05-06 04:07 -34.83582 -56.01730 123 ft 1 kts 144°
2026-05-06 04:07 -34.83583 -56.01729 123 ft 0 kts 144°